Time,TemperatureF,DewpointF,PressureIn,WindDirection,WindDirectionDegrees,WindSpeedMPH,WindSpeedGustMPH,Humidity,HourlyPrecipIn,Conditions,Clouds,dailyrainin,SoftwareType,DateUTC
2013-03-16 00:12:00,42.4,30.0,29.78,NW,315,4.0,8.0,61,0.00,,,0.00,weatherlink.com 1.10,2013-03-16 04:12:00,
2013-03-16 00:27:00,42.0,29.0,29.79,NW,319,2.0,7.0,60,0.00,,,0.00,weatherlink.com 1.10,2013-03-16 04:27:00,
2013-03-16 00:42:00,41.5,28.0,29.79,NE,40,0.0,5.0,60,0.00,,,0.00,weatherlink.com 1.10,2013-03-16 04:42:00,
2013-03-16 00:57:00,40.9,28.0,29.79,NNW,333,1.0,4.0,61,0.00,,,0.00,weatherlink.com 1.10,2013-03-16 04:57:00,
2013-03-16 01:12:00,40.5,28.0,29.78,NW,316,1.0,6.0,62,0.00,,,0.00,weatherlink.com 1.10,2013-03-16 05:12:00,
2013-03-16 01:27:00,40.1,28.0,29.78,NNW,333,0.0,3.0,63,0.00,,,0.00,weatherlink.com 1.10,2013-03-16 05:27:00,
2013-03-16 01:42:00,39.6,28.0,29.79,NE,55,0.0,2.0,64,0.00,,,0.00,weatherlink.com 1.10,2013-03-16 05:42:00,
2013-03-16 01:57:00,39.1,28.0,29.79,North,360,1.0,4.0,64,0.00,,,0.00,weatherlink.com 1.10,2013-03-16 05:57:00,
2013-03-16 02:12:00,39.0,26.0,29.79,NW,312,1.0,5.0,60,0.00,,,0.00,weatherlink.com 1.10,2013-03-16 06:12:00,
2013-03-16 02:27:00,38.8,25.0,29.79,NNE,25,2.0,6.0,58,0.00,,,0.00,weatherlink.com 1.10,2013-03-16 06:27:00,
2013-03-16 02:42:00,38.7,24.0,29.80,NNE,13,6.0,7.0,57,0.00,,,0.00,weatherlink.com 1.10,2013-03-16 06:42:00,
2013-03-16 02:57:00,38.4,24.0,29.80,NE,46,0.0,4.0,57,0.00,,,0.00,weatherlink.com 1.10,2013-03-16 06:57:00,
2013-03-16 03:12:00,38.1,24.0,29.81,NNW,345,1.0,4.0,57,0.00,,,0.00,weatherlink.com 1.10,2013-03-16 07:12:00,
2013-03-16 03:27:00,37.9,24.0,29.80,NNW,330,1.0,4.0,57,0.00,,,0.00,weatherlink.com 1.10,2013-03-16 07:27:00,
2013-03-16 03:42:00,37.6,23.0,29.80,SSW,203,1.0,2.0,57,0.00,,,0.00,weatherlink.com 1.10,2013-03-16 07:42:00,
2013-03-16 03:57:00,37.5,23.0,29.80,NNW,338,1.0,4.0,56,0.00,,,0.00,weatherlink.com 1.10,2013-03-16 07:57:00,
2013-03-16 04:12:00,37.1,23.0,29.80,North,355,0.0,3.0,57,0.00,,,0.00,weatherlink.com 1.10,2013-03-16 08:12:00,
2013-03-16 04:27:00,36.7,23.0,29.80,North,360,0.0,2.0,57,0.00,,,0.00,weatherlink.com 1.10,2013-03-16 08:27:00,
2013-03-16 04:42:00,36.5,23.0,29.81,North,358,1.0,3.0,58,0.00,,,0.00,weatherlink.com 1.10,2013-03-16 08:42:00,
2013-03-16 04:57:00,36.1,23.0,29.81,NNW,338,0.0,1.0,59,0.00,,,0.00,weatherlink.com 1.10,2013-03-16 08:57:00,
2013-03-16 05:12:00,36.0,23.0,29.82,NNE,30,0.0,4.0,59,0.00,,,0.00,weatherlink.com 1.10,2013-03-16 09:12:00,
2013-03-16 05:27:00,35.8,23.0,29.82,North,360,1.0,4.0,59,0.00,,,0.00,weatherlink.com 1.10,2013-03-16 09:27:00,
2013-03-16 05:42:00,35.6,23.0,29.82,NNW,328,1.0,2.0,60,0.00,,,0.00,weatherlink.com 1.10,2013-03-16 09:42:00,
2013-03-16 05:57:00,35.3,22.0,29.83,NNW,333,0.0,3.0,59,0.00,,,0.00,weatherlink.com 1.10,2013-03-16 09:57:00,
2013-03-16 06:12:00,35.3,22.0,29.83,NNE,13,4.0,4.0,58,0.00,,,0.00,weatherlink.com 1.10,2013-03-16 10:12:00,
2013-03-16 06:28:00,35.2,21.0,29.84,NE,39,0.0,3.0,57,0.00,,,0.00,weatherlink.com 1.10,2013-03-16 10:28:00,
2013-03-16 06:43:00,35.0,21.0,29.84,North,349,0.0,2.0,57,0.00,,,0.00,weatherlink.com 1.10,2013-03-16 10:43:00,
2013-03-16 06:58:00,34.9,21.0,29.84,NE,44,0.0,2.0,57,0.00,,,0.00,weatherlink.com 1.10,2013-03-16 10:58:00,
2013-03-16 07:13:00,34.6,21.0,29.83,NNW,335,0.0,2.0,57,0.00,,,0.00,weatherlink.com 1.10,2013-03-16 11:13:00,
2013-03-16 07:28:00,34.4,20.0,29.84,NNW,340,0.0,1.0,57,0.00,,,0.00,weatherlink.com 1.10,2013-03-16 11:28:00,
2013-03-16 07:43:00,34.4,21.0,29.84,NNE,25,0.0,2.0,58,0.00,,,0.00,weatherlink.com 1.10,2013-03-16 11:43:00,
2013-03-16 07:58:00,34.9,21.0,29.86,NW,305,0.0,4.0,57,0.00,,,0.00,weatherlink.com 1.10,2013-03-16 11:58:00,
2013-03-16 08:13:00,35.6,21.0,29.86,NE,42,2.0,3.0,55,0.00,,,0.00,weatherlink.com 1.10,2013-03-16 12:13:00,
2013-03-16 08:28:00,36.0,21.0,29.86,NE,43,4.0,4.0,55,0.00,,,0.00,weatherlink.com 1.10,2013-03-16 12:28:00,
2013-03-16 08:43:00,36.4,21.0,29.86,North,1,3.0,4.0,53,0.00,,,0.00,weatherlink.com 1.10,2013-03-16 12:43:00,
2013-03-16 08:58:00,36.5,20.0,29.86,NNW,342,3.0,5.0,52,0.00,,,0.00,weatherlink.com 1.10,2013-03-16 12:58:00,
2013-03-16 09:13:00,36.7,20.0,29.85,NNW,340,1.0,4.0,50,0.00,,,0.00,weatherlink.com 1.10,2013-03-16 13:13:00,
2013-03-16 09:28:00,36.9,20.0,29.85,NNE,13,1.0,5.0,51,0.00,,,0.00,weatherlink.com 1.10,2013-03-16 13:28:00,
2013-03-16 09:43:00,36.9,21.0,29.84,NE,47,1.0,3.0,52,0.00,,,0.00,weatherlink.com 1.10,2013-03-16 13:43:00,
2013-03-16 09:58:00,36.8,20.0,29.84,NW,319,2.0,5.0,52,0.00,,,0.00,weatherlink.com 1.10,2013-03-16 13:58:00,
2013-03-16 10:13:00,37.4,21.0,29.85,WNW,298,1.0,3.0,51,0.00,,,0.00,weatherlink.com 1.10,2013-03-16 14:13:00,
2013-03-16 10:28:00,37.5,20.0,29.85,NNW,333,0.0,6.0,49,0.00,,,0.00,weatherlink.com 1.10,2013-03-16 14:28:00,
2013-03-16 10:43:00,37.5,20.0,29.84,West,276,1.0,4.0,49,0.00,,,0.00,weatherlink.com 1.10,2013-03-16 14:43:00,
2013-03-16 10:58:00,37.5,21.0,29.84,WNW,293,1.0,3.0,51,0.00,,,0.00,weatherlink.com 1.10,2013-03-16 14:58:00,
2013-03-16 11:13:00,37.8,21.0,29.84,WNW,300,1.0,5.0,50,0.00,,,0.00,weatherlink.com 1.10,2013-03-16 15:13:00,
2013-03-16 11:28:00,38.1,21.0,29.85,NE,51,1.0,2.0,50,0.00,,,0.00,weatherlink.com 1.10,2013-03-16 15:28:00,
2013-03-16 11:43:00,38.3,21.0,29.85,NW,310,0.0,2.0,51,0.00,,,0.00,weatherlink.com 1.10,2013-03-16 15:43:00,
2013-03-16 11:58:00,38.5,22.0,29.84,NNW,342,0.0,2.0,51,0.00,,,0.00,weatherlink.com 1.10,2013-03-16 15:58:00,
2013-03-16 12:13:00,39.2,23.0,29.83,NW,322,0.0,3.0,52,0.00,,,0.00,weatherlink.com 1.10,2013-03-16 16:13:00,
2013-03-16 12:28:00,38.6,23.0,29.83,SW,235,0.0,1.0,53,0.00,,,0.00,weatherlink.com 1.10,2013-03-16 16:28:00,
2013-03-16 12:43:00,38.4,22.0,29.83,SSW,210,0.0,1.0,53,0.00,,,0.00,weatherlink.com 1.10,2013-03-16 16:43:00,
2013-03-16 12:58:00,38.5,23.0,29.82,WNW,301,0.0,2.0,54,0.00,,,0.00,weatherlink.com 1.10,2013-03-16 16:58:00,
2013-03-16 13:13:00,37.9,24.0,29.82,SSW,205,0.0,2.0,57,0.00,,,0.00,weatherlink.com 1.10,2013-03-16 17:13:00,
2013-03-16 13:28:00,36.5,26.0,29.82,South,187,1.0,5.0,66,0.00,,,0.00,weatherlink.com 1.10,2013-03-16 17:28:00,
2013-03-16 13:43:00,36.1,27.0,29.82,South,184,0.0,2.0,70,0.00,,,0.00,weatherlink.com 1.10,2013-03-16 17:43:00,
2013-03-16 13:58:00,34.8,29.0,29.82,SSW,201,0.0,1.0,79,0.00,,,0.00,weatherlink.com 1.10,2013-03-16 17:58:00,
2013-03-16 14:13:00,34.3,29.0,29.82,SW,217,0.0,0.0,81,0.00,,,0.00,weatherlink.com 1.10,2013-03-16 18:13:00,
2013-03-16 14:28:00,34.4,30.0,29.82,NNW,332,1.0,2.0,83,0.00,,,0.00,weatherlink.com 1.10,2013-03-16 18:28:00,
2013-03-16 14:43:00,34.3,30.0,29.82,NW,321,1.0,3.0,84,0.01,,,0.01,weatherlink.com 1.10,2013-03-16 18:43:00,
2013-03-16 14:58:00,34.5,30.0,29.81,NNW,340,2.0,3.0,84,0.01,,,0.01,weatherlink.com 1.10,2013-03-16 18:58:00,
2013-03-16 15:13:00,34.6,31.0,29.79,West,281,1.0,1.0,86,0.01,,,0.01,weatherlink.com 1.10,2013-03-16 19:13:00,
2013-03-16 15:28:00,34.7,31.0,29.80,NW,318,0.0,2.0,86,0.02,,,0.02,weatherlink.com 1.10,2013-03-16 19:28:00,
2013-03-16 15:43:00,34.8,31.0,29.79,West,260,0.0,1.0,86,0.01,,,0.02,weatherlink.com 1.10,2013-03-16 19:43:00,
2013-03-16 15:58:00,34.7,31.0,29.80,NNW,342,1.0,2.0,85,0.01,,,0.02,weatherlink.com 1.10,2013-03-16 19:58:00,
2013-03-16 16:13:00,34.5,31.0,29.80,SW,232,0.0,2.0,86,0.01,,,0.02,weatherlink.com 1.10,2013-03-16 20:13:00,
2013-03-16 16:28:00,34.1,30.0,29.78,West,278,1.0,1.0,86,0.00,,,0.02,weatherlink.com 1.10,2013-03-16 20:28:00,
2013-03-16 16:44:00,34.1,31.0,29.79,WSW,242,0.0,1.0,88,0.00,,,0.02,weatherlink.com 1.10,2013-03-16 20:44:00,
2013-03-16 16:58:00,33.8,31.0,29.79,NNE,13,1.0,3.0,89,0.00,,,0.02,weatherlink.com 1.10,2013-03-16 20:58:00,
2013-03-16 17:14:00,33.6,30.0,29.80,WSW,250,1.0,1.0,88,0.00,,,0.02,weatherlink.com 1.10,2013-03-16 21:14:00,
2013-03-16 17:29:00,33.6,31.0,29.80,NW,318,0.0,2.0,89,0.00,,,0.02,weatherlink.com 1.10,2013-03-16 21:29:00,
2013-03-16 17:44:00,33.6,31.0,29.79,NW,309,1.0,2.0,89,0.00,,,0.02,weatherlink.com 1.10,2013-03-16 21:44:00,
2013-03-16 17:59:00,33.1,30.0,29.79,WNW,291,0.0,3.0,89,0.00,,,0.02,weatherlink.com 1.10,2013-03-16 21:59:00,
2013-03-16 18:14:00,33.1,31.0,29.80,WNW,295,0.0,2.0,90,0.00,,,0.02,weatherlink.com 1.10,2013-03-16 22:14:00,
2013-03-16 18:29:00,33.1,30.0,29.79,West,263,0.0,2.0,89,0.00,,,0.02,weatherlink.com 1.10,2013-03-16 22:29:00,
2013-03-16 18:44:00,33.3,30.0,29.79,West,276,0.0,1.0,89,0.00,,,0.02,weatherlink.com 1.10,2013-03-16 22:44:00,
2013-03-16 18:59:00,33.3,30.0,29.80,NNW,335,1.0,4.0,89,0.00,,,0.02,weatherlink.com 1.10,2013-03-16 22:59:00,
2013-03-16 19:14:00,33.3,30.0,29.81,WNW,300,1.0,4.0,89,0.00,,,0.02,weatherlink.com 1.10,2013-03-16 23:14:00,
2013-03-16 19:29:00,33.4,31.0,29.82,NNW,345,0.0,2.0,89,0.00,,,0.02,weatherlink.com 1.10,2013-03-16 23:29:00,
2013-03-16 19:44:00,33.5,31.0,29.82,NW,324,0.0,3.0,89,0.00,,,0.02,weatherlink.com 1.10,2013-03-16 23:44:00,
2013-03-16 19:59:00,33.2,30.0,29.83,WNW,294,1.0,4.0,88,0.00,,,0.02,weatherlink.com 1.10,2013-03-16 23:59:00,
2013-03-16 20:14:00,33.2,30.0,29.84,WNW,302,1.0,7.0,88,0.00,,,0.02,weatherlink.com 1.10,2013-03-17 00:14:00,
2013-03-16 20:29:00,33.2,30.0,29.84,NNW,335,0.0,3.0,89,0.00,,,0.02,weatherlink.com 1.10,2013-03-17 00:29:00,
2013-03-16 20:44:00,33.1,30.0,29.85,NW,324,0.0,3.0,88,0.00,,,0.02,weatherlink.com 1.10,2013-03-17 00:44:00,
2013-03-16 20:59:00,33.2,30.0,29.86,NW,314,1.0,2.0,88,0.00,,,0.02,weatherlink.com 1.10,2013-03-17 00:59:00,
2013-03-16 21:14:00,33.2,30.0,29.86,WNW,283,0.0,2.0,88,0.00,,,0.02,weatherlink.com 1.10,2013-03-17 01:14:00,
2013-03-16 21:29:00,33.2,30.0,29.87,NNE,21,1.0,2.0,87,0.00,,,0.02,weatherlink.com 1.10,2013-03-17 01:29:00,
2013-03-16 21:44:00,33.3,30.0,29.87,NW,323,0.0,2.0,86,0.00,,,0.02,weatherlink.com 1.10,2013-03-17 01:44:00,
2013-03-16 21:59:00,33.3,30.0,29.88,NNW,330,1.0,2.0,86,0.00,,,0.02,weatherlink.com 1.10,2013-03-17 01:59:00,
2013-03-16 22:14:00,33.3,29.0,29.88,NNW,330,0.0,2.0,85,0.00,,,0.02,weatherlink.com 1.10,2013-03-17 02:14:00,
2013-03-16 22:29:00,33.4,29.0,29.88,WNW,301,1.0,2.0,85,0.00,,,0.02,weatherlink.com 1.10,2013-03-17 02:29:00,
2013-03-16 22:44:00,33.5,30.0,29.89,NNE,30,0.0,4.0,85,0.00,,,0.02,weatherlink.com 1.10,2013-03-17 02:44:00,
2013-03-16 22:59:00,33.7,30.0,29.89,North,11,2.0,3.0,86,0.00,,,0.02,weatherlink.com 1.10,2013-03-17 02:59:00,
2013-03-16 23:14:00,33.7,30.0,29.90,NNW,328,0.0,3.0,86,0.00,,,0.02,weatherlink.com 1.10,2013-03-17 03:14:00,
2013-03-16 23:29:00,33.7,30.0,29.91,NNW,328,1.0,3.0,87,0.00,,,0.02,weatherlink.com 1.10,2013-03-17 03:29:00,
2013-03-16 23:44:00,33.8,30.0,29.90,NNE,33,0.0,2.0,86,0.00,,,0.02,weatherlink.com 1.10,2013-03-17 03:44:00,
2013-03-16 23:59:00,33.9,30.0,29.91,NNE,33,0.0,0.0,86,0.00,,,0.02,weatherlink.com 1.10,2013-03-17 03:59:00,